GW4132 Weather Reports


Display with metric or nautical units.
time (UTC)temp
F
wind
direction
speed
MPH
gust
MPH
rain 1hr
in
rain 24hr
in
rain mn
in
humidity
%
barometer
mb
20260507070134 42 49 0.0 2.0 0.00 0.00 0.00 93 1023.5
20260507064551 43 62 0.0 3.0 0.00 0.00 0.00 93 1023.5
20260507063046 43 29 0.0 1.0 0.00 0.00 0.00 93 1023.6
20260507061559 43 24 0.0 2.0 0.00 0.00 0.00 93 1023.6
20260507060108 43 38 0.0 1.0 0.00 0.00 0.00 93 1023.8
20260507054620 44 65 0.0 3.0 0.00 0.00 0.00 92 1023.8
20260507053056 44 74 0.0 2.0 0.00 0.00 0.00 92 1023.9
20260507051611 44 74 0.0 1.0 0.00 0.00 0.00 92 1023.8
20260507050103 44 79 0.0 0.0 0.00 0.00 0.00 91 1023.8
20260507044554 44 80 0.0 2.0 0.00 0.00 0.00 91 1023.8
20260507043058 44 63 0.0 2.0 0.00 0.00 0.00 91 1023.9
20260507041551 44 63 0.0 4.0 0.00 0.00 0.00 91 1023.8
20260507040111 44 238 0.0 3.0 0.00 0.00 0.00 91 1023.8
20260507034604 44 53 0.0 2.0 0.00 0.00 0.00 90 1023.6
20260507033055 45 55 0.0 3.0 0.00 0.00 0.00 91 1023.5
20260507031557 46 85 0.0 2.0 0.00 0.00 0.00 88 1023.3
20260507030114 46 46 0.0 3.0 0.00 0.00 0.00 87 1023.3
20260507024626 46 53 0.0 4.0 0.00 0.00 0.00 88 1023.4
20260507023054 47 56 1.0 3.0 0.00 0.00 0.00 87 1023.0
20260507021612 46 44 0.0 3.0 0.00 0.00 0.00 88 1023.1
20260507020105 47 69 1.0 5.0 0.00 0.00 0.00 87 1023.3
20260507014537 48 26 1.0 3.0 0.00 0.00 0.00 86 1023.2
20260507013032 48 35 1.0 5.0 0.00 0.00 0.00 86 1023.2
20260507011531 48 30 2.0 5.0 0.00 0.00 0.00 86 1023.1
20260507010030 49 69 1.0 5.0 0.00 0.00 0.00 85 1023.3
20260507004532 49 35 1.0 4.0 0.00 0.00 0.00 82 1023.2
20260507003029 51 259 1.0 8.0 0.00 0.00 0.00 80 1023.5
20260507001528 52 54 1.0 5.0 0.00 0.00 0.00 78 1023.1
20260507000030 51 89 0.0 5.0 0.00 0.00 0.00 79 1023.2
20260506234533 51 184 3.0 8.0 0.00 0.00 0.00 79 1023.1
20260506233030 51 350 1.0 5.0 0.00 0.00 0.00 81 1023.2
20260506231529 52 81 4.0 9.0 0.00 0.00 0.00 80 1023.0
20260506230029 53 299 1.0 9.0 0.00 0.00 0.00 80 1023.0
20260506224536 54 171 2.0 7.0 0.00 0.00 0.00 77 1023.3
20260506223037 55 195 2.0 6.0 0.00 0.00 0.00 76 1023.1
20260506221531 55 33 2.0 8.0 0.00 0.00 0.00 75 1023.2
20260506220038 55 136 2.0 5.0 0.00 0.00 0.00 79 1023.0
20260506214533 56 53 2.0 9.0 0.00 0.00 0.00 75 1023.1
20260506213036 55 43 2.0 6.0 0.00 0.00 0.00 79 1023.2
20260506211536 55 143 3.0 8.0 0.00 0.00 0.00 79 1023.2
20260506210034 56 5 2.0 6.0 0.00 0.00 0.00 79 1023.2
20260506204534 56 173 3.0 6.0 0.00 0.00 0.00 79 1023.1
20260506203030 55 71 1.0 6.0 0.00 0.00 0.00 79 1023.0
20260506201543 57 103 2.0 6.0 0.00 0.00 0.00 77 1022.9
20260506200042 57 360 2.0 7.0 0.00 0.00 0.00 78 1022.6
20260506194548 58 170 2.0 6.0 0.00 0.00 0.00 78 1022.8
20260506193044 58 121 1.0 6.0 0.00 0.00 0.00 77 1022.9
20260506191546 58 30 0.0 4.0 0.00 0.00 0.00 74 1022.7
20260506190045 57 205 2.0 6.0 0.00 0.00 0.00 81 1023.0
20260506184546 56 188 1.0 4.0 0.00 0.00 0.00 83 1022.8
20260506183041 54 190 2.0 5.0 0.00 0.00 0.00 85 1022.6
20260506181540 54 116 1.0 5.0 0.00 0.00 0.00 86 1022.7
20260506180040 53 189 1.0 5.0 0.00 0.00 0.00 88 1023.0
20260506174537 51 167 1.0 4.0 0.00 0.00 0.00 90 1022.9
20260506173100 50 162 1.0 4.0 0.00 0.00 0.00 92 1023.1
20260506171543 49 156 0.0 3.0 0.00 0.00 0.00 92 1023.0
20260506170038 48 86 0.0 3.0 0.00 0.00 0.00 94 1022.8
20260506164539 48 174 1.0 4.0 0.00 0.00 0.00 95 1022.4
20260506163052 47 143 0.0 2.0 0.00 0.00 0.00 98 1022.9
20260506161541 46 209 0.0 1.0 0.00 0.00 0.00 98 1022.8
20260506160046 45 209 0.0 3.0 0.00 0.00 0.00 98 1022.9
20260506154546 45 170 0.0 2.0 0.00 0.00 0.00 98 1022.8
20260506153041 45 164 0.0 1.0 0.00 0.00 0.00 98 1022.8
20260506151540 45 94 0.0 1.0 0.00 0.00 0.00 97 1022.8
20260506150044 45 60 0.0 2.0 0.00 0.00 0.00 97 1022.6
20260506144539 45 49 0.0 1.0 0.00 0.00 0.00 97 1022.6
20260506143038 45 49 0.0 1.0 0.00 0.00 0.00 97 1022.7
20260506141539 45 49 0.0 2.0 0.00 0.00 0.00 97 1022.6
20260506140055 45 49 0.0 1.0 0.00 0.00 0.00 97 1022.5
20260506134542 44 49 0.0 1.0 0.00 0.00 0.00 97 1022.2
20260506133037 44 49 0.0 1.0 0.00 0.00 0.00 97 1022.1
20260506131543 44 49 0.0 0.0 0.00 0.00 0.00 97 1022.2
20260506130048 44 49 0.0 1.0 0.00 0.00 0.00 98 1022.1
20260506124548 44 49 0.0 0.0 0.00 0.00 0.00 97 1022.1
20260506123039 44 49 0.0 0.0 0.00 0.00 0.00 97 1022.0
20260506121545 43 49 0.0 1.0 0.00 0.00 0.00 98 1021.9
20260506120109 43 49 0.0 0.0 0.00 0.00 0.00 97 1021.9
20260506114601 43 49 0.0 0.0 0.00 0.00 0.00 98 1021.9
20260506113048 43 49 0.0 0.0 0.00 0.00 0.00 97 1021.8
20260506111552 42 49 0.0 0.0 0.00 0.00 0.00 98 1021.8
20260506110050 42 49 0.0 0.0 0.00 0.00 0.00 98 1021.7
20260506104548 41 49 0.0 0.0 0.00 0.00 0.00 97 1021.8
20260506103053 41 49 0.0 1.0 0.00 0.00 0.00 96 1021.6
20260506101552 41 49 0.0 1.0 0.00 0.00 0.00 95 1021.6
20260506100050 41 49 0.0 1.0 0.00 0.00 0.00 96 1021.6
20260506094548 41 49 0.0 1.0 0.00 0.00 0.00 96 1021.4
20260506093109 42 49 0.0 1.0 0.00 0.00 0.00 96 1021.4
20260506091553 42 49 0.0 1.0 0.00 0.00 0.00 96 1021.3
20260506090121 42 49 0.0 1.0 0.00 0.00 0.00 96 1021.4
20260506084554 42 49 0.0 1.0 0.00 0.00 0.00 95 1021.5
20260506083050 42 49 0.0 1.0 0.00 0.00 0.00 95 1021.4
20260506081552 43 49 0.0 1.0 0.00 0.00 0.00 96 1021.4
20260506073102 43 49 0.0 1.0 0.00 0.00 0.00 94 1021.4
20260506071551 43 49 0.0 1.0 0.00 0.00 0.00 95 1021.2